Weather History for KHEI - January, 2012

Change the Weather History Date:

Sunday, January 8, 2012

  Actual Average Record
Temperature  
Mean Temperature 26 °F -  
Max Temperature 40 °F 27 °F 62 °F (2002)
Min Temperature 11 °F 5 °F -16 °F (1999)
Degree Days  
Heating Degree Days 39 49  
Month to date heating degree days 291 392  
Since 1 July heating degree days 3399 3971  
Moisture  
Dew Point 15 °F    
Average Humidity 61    
Maximum Humidity 88    
Minimum Humidity 37    
Precipitation  
Precipitation 0.00 in 0.01 in 0.04 in (2004)
Month to date precipitation 0.00 0.09  
Year to date precipitation 0.00 0.09  
Sea Level Pressure  
Sea Level Pressure 30.16 in    
Wind  
Wind Speed 8 mph (West)    
Max Wind Speed 16 mph    
Max Gust Speed 18 mph    
Visibility 10 miles    
Events      
T = Trace of Precipitation, MM = Missing Value Source: NWS Daily Summary

Daily Weather History Graph

Daily Weather History Graph

Search for Another Location

Airport or City:

Trip Planner

Search our weather history database for the weather conditions in past years. The results will help you decide how hot, cold, wet, or windy it might be!

Date:

Astronomy

Jan. 08, 2012 Rise Set
Actual Time 7:31 AM MST 4:22 PM MST
Civil Twilight 6:57 AM MST 4:56 PM MST
Nautical Twilight 6:20 AM MST 5:34 PM MST
Astronomical Twilight 5:44 AM MST 6:10 PM MST
Moon 4:09 PM MST (1/8) 6:51 AM MST (1/8)
Length of Visible Light 9h 59m
Length of Day
8h 51m
Full, 100% of the Moon is Illuminated
Jan 8
Full
Jan 9
Full
Jan 16
Last Quarter
Jan 23
New
Jan 30
First Quarter

Hourly Weather History & Observations

Time (MST) Temp. Windchill Dew Point Humidity Pressure Visibility Wind Dir Wind Speed Gust Speed Precip Events Conditions
12:53 AM 21.0 °F 14.6 °F 15.1 °F 78% 30.18 in 10.0 mi WNW 4.6 mph - N/A   Overcast
1:53 AM 19.0 °F 10.0 °F 14.0 °F 81% 30.18 in 10.0 mi WNW 6.9 mph - N/A   Clear
2:53 AM 19.0 °F 12.3 °F 14.0 °F 81% 30.19 in 10.0 mi WNW 4.6 mph - N/A   Mostly Cloudy
3:53 AM 19.0 °F 12.3 °F 14.0 °F 81% 30.19 in 10.0 mi WNW 4.6 mph - N/A   Mostly Cloudy
4:53 AM 14.0 °F 5.1 °F 10.0 °F 84% 30.23 in 10.0 mi NW 5.8 mph - N/A   Clear
5:53 AM 12.9 °F - 8.1 °F 81% 30.23 in 10.0 mi Calm Calm - N/A   Clear
6:53 AM 12.0 °F 5.9 °F 8.1 °F 84% 30.25 in 10.0 mi WNW 3.5 mph - N/A   Clear
7:53 AM 10.9 °F 4.7 °F 7.0 °F 84% 30.25 in 10.0 mi NW 3.5 mph - N/A   Clear
8:53 AM 19.9 °F - 15.1 °F 81% 30.24 in 10.0 mi Calm Calm - N/A   Clear
9:53 AM 30.0 °F 21.7 °F 18.0 °F 61% 30.24 in 10.0 mi West 9.2 mph - N/A   Clear
10:53 AM 32.0 °F 23.0 °F 16.0 °F 52% 30.21 in 10.0 mi West 11.5 mph - N/A   Clear
11:53 AM 36.0 °F 29.0 °F 17.1 °F 46% 30.19 in 10.0 mi WSW 9.2 mph - N/A   Clear
12:53 PM 39.0 °F 31.8 °F 17.1 °F 41% 30.14 in 10.0 mi SW 11.5 mph - N/A   Clear
1:53 PM 39.9 °F 32.5 °F 15.1 °F 36% 30.13 in 10.0 mi WSW 12.7 mph - N/A   Clear
2:53 PM 39.0 °F 31.4 °F 15.1 °F 38% 30.11 in 10.0 mi WSW 12.7 mph - N/A   Clear
3:53 PM 37.0 °F 31.6 °F 15.1 °F 41% 30.10 in 10.0 mi WSW 6.9 mph - N/A   Clear
5:53 PM 35.1 °F 27.9 °F 15.1 °F 44% 30.12 in 10.0 mi WSW 9.2 mph - N/A   Mostly Cloudy
6:53 PM 34.0 °F 26.6 °F 15.1 °F 46% 30.11 in 10.0 mi WSW 9.2 mph - N/A   Mostly Cloudy
7:53 PM 34.0 °F 26.6 °F 17.1 °F 50% 30.09 in 10.0 mi West 9.2 mph - N/A   Clear
8:53 PM 34.0 °F 26.6 °F 18.0 °F 52% 30.08 in 10.0 mi West 9.2 mph - N/A   Clear
9:53 PM 35.1 °F 27.9 °F 19.0 °F 52% 30.06 in 10.0 mi West 9.2 mph - N/A   Clear
10:53 PM 34.0 °F 25.5 °F 19.9 °F 56% 30.06 in 10.0 mi West 11.5 mph - N/A   Clear